Weather History for KPBG - August, 2013

Change the Weather History Date:

Tuesday, August 27, 2013

  Actual Average Record
Temperature  
Mean Temperature 72 °F 66 °F  
Max Temperature 79 °F 77 °F 95 °F (1948)
Min Temperature 65 °F 54 °F 42 °F (1989)
Degree Days  
Heating Degree Days 0 2  
Month to date heating degree days 19  
Since 1 June heating degree days 115  
Since 1 July heating degree days 30  
Cooling Degree Days 7 3  
Month to date cooling degree days 71 98  
Year to date cooling degree days 358 311  
Since 1 June cooling degree days 338 303  
Growing Degree Days 22 (Base 50)    
Moisture  
Dew Point 67 °F    
Average Humidity 84    
Maximum Humidity 100    
Minimum Humidity 67    
Precipitation  
Precipitation T in - 0.80 in (1979)
Month to date precipitation 3.36  
Year to date precipitation 23.92  
Sea Level Pressure  
Sea Level Pressure 29.89 in    
Wind  
Wind Speed 2 mph (ENE)    
Max Wind Speed 9 mph    
Max Gust Speed 28 mph    
Visibility 7 miles    
Events Fog    
T = Trace of Precipitation, MM = Missing Value Source: NWS Daily Summary

Daily Weather History Graph

Daily Weather History Graph

Search for Another Location

Airport or City:

Trip Planner

Search our weather history database for the weather conditions in past years. The results will help you decide how hot, cold, wet, or windy it might be!

Date:

Astronomy

Aug. 27, 2013 Rise Set
Actual Time 6:10 AM EDT 7:39 PM EDT
Civil Twilight 5:40 AM EDT 8:09 PM EDT
Nautical Twilight 5:03 AM EDT 8:46 PM EDT
Astronomical Twilight 4:23 AM EDT 9:25 PM EDT
Moon 11:11 PM EDT (8/27) 1:24 PM EDT (8/27)
Length of Visible Light 14h 29m
Length of Day
13h 28m
Waning Gibbous, 57% of the Moon is Illuminated
Aug 27
Waning Gibbous
Aug 28
Last Quarter
Sep 5
New
Sep 12
First Quarter
Sep 19
Full

Hourly Weather History & Observations

Time (EDT) Temp. Dew Point Humidity Pressure Visibility Wind Dir Wind Speed Gust Speed Precip Events Conditions
12:07 AM 69.8 °F 68.0 °F 94% 29.88 in 3.0 mi Calm Calm - N/A   Overcast
12:29 AM 69.8 °F 68.0 °F 94% 29.88 in 2.5 mi Calm Calm - N/A   Overcast
12:53 AM 69.1 °F 68.0 °F 96% 29.88 in 2.0 mi Calm Calm - N/A   Overcast
1:03 AM 69.8 °F 68.0 °F 94% 29.88 in 1.5 mi Calm Calm - N/A   Overcast
1:25 AM 69.8 °F 68.0 °F 94% 29.87 in 2.5 mi Calm Calm - N/A   Overcast
1:34 AM 69.8 °F 66.2 °F 88% 29.87 in 4.0 mi Calm Calm - N/A   Overcast
1:53 AM 69.1 °F 66.9 °F 93% 29.87 in 10.0 mi Calm Calm - N/A   Overcast
2:10 AM 68.0 °F 66.2 °F 94% 29.87 in 4.0 mi Calm Calm - N/A   Overcast
2:53 AM 69.1 °F 66.9 °F 93% 29.87 in 10.0 mi Calm Calm - N/A   Overcast
3:14 AM 68.0 °F 66.2 °F 94% 29.87 in 10.0 mi Calm Calm - N/A   Overcast
3:26 AM 69.8 °F 66.2 °F 88% 29.87 in 10.0 mi Calm Calm - N/A   Overcast
3:53 AM 68.0 °F 66.0 °F 93% 29.87 in 10.0 mi Calm Calm - N/A   Overcast
4:53 AM 68.0 °F 66.0 °F 93% 29.87 in 10.0 mi WNW 3.5 mph - N/A   Overcast
5:53 AM 66.9 °F 66.0 °F 97% 29.88 in 2.5 mi Calm Calm - 0.00 in   Overcast
6:01 AM 66.2 °F 66.2 °F 100% 29.88 in 1.0 mi Calm Calm - N/A   Overcast
6:08 AM 66.2 °F 66.2 °F 100% 29.88 in 3.0 mi Calm Calm - N/A   Overcast
6:13 AM 66.2 °F 66.2 °F 100% 29.88 in 1.5 mi Calm Calm - N/A   Overcast
6:30 AM 66.2 °F 64.4 °F 94% 29.88 in 0.5 mi Calm Calm - N/A Fog Fog
6:53 AM 66.0 °F 64.9 °F 96% 29.88 in 0.5 mi Calm Calm - N/A Fog Fog
7:00 AM 66.2 °F 66.2 °F 100% 29.89 in 0.8 mi Calm Calm - N/A   Mostly Cloudy
7:03 AM 66.2 °F 64.4 °F 94% 29.89 in 2.0 mi Calm Calm - N/A   Mostly Cloudy
7:11 AM 66.2 °F 64.4 °F 94% 29.89 in 5.0 mi Calm Calm - N/A   Mostly Cloudy
7:53 AM 70.0 °F 68.0 °F 93% 29.90 in 10.0 mi Calm Calm - N/A   Overcast
8:23 AM 69.8 °F 68.0 °F 94% 29.90 in 10.0 mi Calm Calm - N/A   Overcast
8:53 AM 70.0 °F 68.0 °F 93% 29.91 in 10.0 mi Calm Calm - N/A   Overcast
9:05 AM 71.6 °F 68.0 °F 88% 29.91 in 10.0 mi Calm Calm - N/A   Overcast
9:43 AM 71.6 °F 68.0 °F 88% 29.91 in 10.0 mi Calm Calm - 0.00 in   Overcast
9:53 AM 72.0 °F 66.9 °F 84% 29.91 in 10.0 mi Calm Calm - 0.00 in   Overcast
10:53 AM 73.9 °F 68.0 °F 82% 29.91 in 10.0 mi ESE 5.8 mph - N/A   Mostly Cloudy
11:39 AM 75.2 °F 68.0 °F 78% 29.91 in 10.0 mi East 5.8 mph - N/A   Mostly Cloudy
11:53 AM 75.9 °F 66.9 °F 74% 29.91 in 10.0 mi ESE 6.9 mph - N/A   Scattered Clouds
12:53 PM 75.0 °F 66.9 °F 76% 29.91 in 10.0 mi East 5.8 mph - N/A   Mostly Cloudy
1:53 PM 77.0 °F 68.0 °F 74% 29.90 in 10.0 mi Calm Calm - N/A   Partly Cloudy
2:53 PM 78.1 °F 68.0 °F 71% 29.88 in 10.0 mi Variable 4.6 mph - N/A   Mostly Cloudy
3:53 PM 77.0 °F 68.0 °F 74% 29.86 in 10.0 mi East 3.5 mph - N/A   Partly Cloudy
4:53 PM 78.1 °F 66.9 °F 68% 29.86 in 10.0 mi NE 3.5 mph - N/A   Partly Cloudy
5:53 PM 77.0 °F 66.9 °F 71% 29.86 in 10.0 mi NNE 3.5 mph - N/A   Scattered Clouds
6:53 PM 75.9 °F 68.0 °F 76% 29.87 in 10.0 mi NNE 3.5 mph - N/A   Overcast
7:53 PM 72.0 °F 69.1 °F 91% 29.87 in 10.0 mi Calm Calm - N/A   Scattered Clouds
8:53 PM 71.1 °F 69.1 °F 93% 29.89 in 8.0 mi Calm Calm - N/A   Partly Cloudy
9:53 PM 70.0 °F 68.0 °F 93% 29.89 in 9.0 mi Calm Calm - N/A   Clear
10:53 PM 68.0 °F 66.9 °F 96% 29.90 in 5.0 mi Calm Calm - N/A   Clear
11:37 PM 66.2 °F 64.4 °F 94% 29.89 in 1.8 mi Calm Calm - N/A   Clear
11:53 PM 68.0 °F 66.9 °F 96% 29.89 in 4.0 mi SW 4.6 mph - N/A   Clear